Location: El Azufral
(10.3513°N, 67.1528°W)
Time: 19:32:56
(UTC+00:00)

Cosmos 1536 - Pass Details

Date: 13 June 2024
Orbit: 514 x 539 km, 82.6° (Epoch: 24 July)

Event Time Altitude Azimuth Distance (km) Brightness Sun altitude
Rises 23:06:25 0° 12° (NNE) 2,690 6.5 -4.4°
Reaches altitude 10° 23:08:46 10° 23° (NNE) 1,799 5.5 -4.9°
Maximum altitude 23:12:15 29° 85° (E) 995 3.7 -5.7°
Drops below altitude 10° 23:15:43 10° 146° (SSE) 1,794 4.9 -6.4°
Enters shadow 23:17:45 - 156° (SSE) 2,561 5.8 -6.9°
